Weather observations for the past three days for
Eugene, Mahlon Sweet Field
Imperial (Metric)
Date Time (pdt) Wind (mph) Vis. (mi.) Weather Sky Cond. Temperature (ºF) Relative Humidity Wind Chill (°F) Heat Index (°F) Pressure Precipitation (in)
Air Dwpt 6 hour altimeter (in) sea level (mb) 1 hr 3 hr 6 hr
Max. Min.
05 22:54 Calm 10.00 Mostly Cloudy BKN028 52 51.1 66.9 50 97% 30.04 1017.2
05 21:54 W 3 10.00 Fair CLR 55 52 90% 30.02 1016.6
05 20:54 NW 7 10.00 A Few Clouds FEW040 57.9 53.1 84% 30 1016.0
05 19:54 N 5 10.00 A Few Clouds FEW040 61 55 81% 29.99 1015.5
05 18:54 NE 5 10.00 A Few Clouds FEW035 64 55 73% 29.98 1015.1
05 17:54 NE 5 10.00 A Few Clouds FEW030 64.9 55 70% 29.98 1015.0
05 16:54 NE 5 10.00 A Few Clouds FEW030 66.9 54 66.9 57.9 63% 29.98 1015.1
05 15:54 Vrbl 3 10.00 Partly Cloudy SCT027 64.9 53.1 66% 29.99 1015.6
05 14:54 E 3 10.00 Mostly Cloudy BKN023 62.1 52 70% 30.02 1016.4
05 13:54 NW 6 10.00 Overcast OVC023 62.1 51.1 67% 30.02 1016.5
05 12:54 Calm 10.00 Overcast OVC021 60.1 50 70% 30.03 1016.7
05 11:54 E 6 10.00 Overcast OVC021 59 51.1 75% 30.02 1016.7
05 10:54 Calm 10.00 Overcast OVC021 57.9 48.9 57.9 54 72% 30.02 1016.5
05 09:54 Calm 10.00 Overcast OVC019 57 48.9 74% 30.01 1016.3
05 08:54 S 3 10.00 Overcast OVC017 55.9 48.9 77% 30.02 1016.4
05 07:54 Calm 10.00 Overcast OVC019 55 48 77% 30.01 1016.2
05 06:54 Calm 10.00 Overcast OVC019 54 48 80% 30 1015.9
05 05:54 Vrbl 3 10.00 Overcast OVC018 54 48 80% 29.99 1015.6
05 04:54 W 3 10.00 Overcast OVC016 54 48 55 54 80% 29.98 1015.2
05 03:54 SW 5 10.00 Overcast OVC017 54 48.9 83% 29.98 1015.2
05 02:54 SW 9 10.00 Overcast OVC015 54 48.9 83% 29.97 1014.9
05 01:54 SW 8 10.00 Overcast OVC015 54 48.9 83% 29.97 1014.8
05 00:54 SW 8 10.00 Overcast OVC014 55 48.9 80% 29.97 1015.0
04 23:54 SW 6 10.00 Overcast OVC014 55 48.9 80% 29.97 1014.9
04 22:54 SW 6 10.00 Mostly Cloudy BKN015 BKN031 55 48.9 66 54 80% 29.97 1014.7
04 21:54 SW 10 10.00 Partly Cloudy SCT031 55 48.9 80% 29.96 1014.4
04 20:54 SW 14 10.00 Mostly Cloudy BKN032 55.9 50 81% 29.94 1013.8
04 19:54 SW 15 10.00 Partly Cloudy SCT033 SCT250 57.9 50 75% 29.91 1012.9
04 18:54 SW 15 10.00 A Few Clouds FEW050 FEW250 61 51.1 70% 29.9 1012.5
04 17:54 SW 15 10.00 A Few Clouds FEW050 FEW250 64.9 52 63% 29.9 1012.6
04 16:54 S 15 10.00 A Few Clouds FEW040 FEW200 64.9 53.1 66.9 57.9 66% 29.9 1012.6
04 15:54 S 15 10.00 Partly Cloudy FEW030 SCT250 64.9 53.1 66% 29.92 1013.0
04 14:54 SW 14 10.00 Partly Cloudy SCT027 SCT250 66 53.1 63% 29.94 1013.7
04 13:54 S 8 G 20 10.00 Mostly Cloudy BKN025 64.9 53.1 66% 29.94 1013.9
04 12:54 S 5 10.00 Mostly Cloudy BKN022 61 52 72% 29.95 1014.3
04 11:54 S 7 10.00 Overcast OVC019 59 51.1 75% 29.96 1014.6
04 10:54 S 7 10.00 Overcast OVC018 57.9 50 57.9 54 75% 29.97 1014.8
04 09:54 SW 8 10.00 Overcast OVC017 57 48.9 74% 29.97 1014.7
04 08:54 S 8 10.00 Overcast OVC016 55.9 50 81% 29.96 1014.4
04 07:54 SW 7 10.00 Overcast OVC016 55 48.9 80% 29.95 1014.1
04 06:54 S 7 10.00 Overcast OVC015 54 48.9 83% 29.94 1013.6
04 05:54 SW 10 10.00 Overcast OVC014 54 48.9 83% 29.92 1013.1
04 04:54 S 12 10.00 Overcast OVC014 54 48.9 55.9 53.1 83% 29.92 1013.0
04 03:54 S 13 10.00 Overcast OVC013 54 48.9 83% 29.91 1012.8
04 02:54 S 15 10.00 Overcast OVC012 54 48.9 83% 29.9 1012.5
04 01:54 S 12 10.00 Mostly Cloudy BKN012 54 50 87% 29.89 1012.0
04 00:54 S 15 10.00 Fair CLR 54 50 87% 29.87 1011.4
03 23:54 S 16 10.00 Partly Cloudy SCT120 55 50 83% 29.86 1010.9
03 22:54 S 14 10.00 Partly Cloudy SCT120 55.9 50 82.9 55.9 81% 29.84 1010.2
03 21:54 SW 15 10.00 A Few Clouds FEW120 FEW250 62.1 52 70% 29.8 1009.0
03 20:54 SW 12 10.00 Partly Cloudy FEW060 FEW120 SCT250 70 55.9 61% 29.77 1007.9
03 19:54 SW 6 10.00 Partly Cloudy FEW060 SCT120 SCT250 75.9 63 64% 78 29.75 1007.1
03 18:54 N 5 10.00 Partly Cloudy FEW060 SCT120 SCT250 79 64.9 62% 81 29.74 1007.1
03 17:54 N 6 10.00 Mostly Cloudy FEW060 SCT120 BKN250 80.1 63 56% 81 29.75 1007.2
03 16:54 N 9 10.00 Partly Cloudy SCT060 SCT200 82 60.1 82 66 47% 82 29.75 1007.3
03 15:54 N 10 10.00 Partly Cloudy FEW070 SCT200 81 62.1 53% 82 29.77 1007.9
03 14:54 N 9 10.00 Partly Cloudy FEW070 SCT200 82 57 43% 82 29.8 1008.9
03 13:54 N 8 10.00 A Few Clouds FEW070 FEW150 78.1 57 48% 79 29.81 1009.4
03 12:54 N 6 10.00 A Few Clouds FEW070 FEW150 73.9 57.9 57% 29.84 1010.2
03 11:54 NW 7 10.00 A Few Clouds FEW150 71.1 55.9 59% 29.86 1011.0
03 10:54 Vrbl 5 10.00 Fair CLR 66 55.9 66 44.1 70% 29.87 1011.6
03 09:54 NW 7 10.00 A Few Clouds FEW150 61 55.9 84% 29.88 1011.7
03 08:54 Calm 10.00 A Few Clouds FEW150 57 55 93% 29.89 1012.0
03 07:54 Calm 0.75 Fog/Mist BKN002 54 53.1 97% 29.89 1012.0
03 06:54 S 3 0.25 Fog VV001 48.9 48.9 100% 29.88 1011.8
03 05:52 S 3 0.50 Fog VV001 45 45 100% 29.87 1011.5
03 04:54 Calm 9.00 Overcast OVC002 46.9 46 55 44.1 97% 29.88 1011.8
03 03:54 Calm 6.00 Fog/Mist CLR 46 46 100% 29.88 1011.9
03 02:54 Calm 6.00 Fog/Mist CLR 48.9 48.9 100% 29.88 1011.8
03 01:54 Calm 9.00 Fair CLR 50 50 100% 29.88 1011.9
03 00:54 Calm 8.00 Fair CLR 52 51.1 97% 29.89 1012.0
02 23:54 Calm 10.00 Fair CLR 53.1 51.1 93% 29.89 1012.2
Date Time (pdt) Wind (mph) Vis. (mi.) Weather Sky Cond. Air Dwpt Max. Min. Relative Humidity Wind Chill (°F) Heat Index (°F) altimeter (in) sea level (mb) 1 hr 3 hr 6 hr
6 hour
Temperature (ºF) Pressure Precipitation (in)